Terug naar catalogus

STARLINK-34561

ActiefCommunicatieVLEO
NORAD 65081·PAYLOAD·🇺🇸 United States

Gelanceerd Aug 4, 2025 vanaf Cape Canaveral Space Force Station

Loading…

Volgende Passages (komende 24 uur)

TLE

VersSource: CelesTrak SupGP

Epoch: Sep 14, 2026, 22:43 UTC

1 65081C 25167D   26257.94701389  .00013680  00000+0  40409-3 0  2578
2 65081  53.1584 223.9448 0001390  92.5269  59.0971 15.34391049    17

Volg STARLINK-34561 in realtime met AllMySat

Download on the App Store